FREGAT R/B, 45609

Orbit data source: Space-Track

FREGAT R/B, 45609 is space debris originally from a launch on Fri, 22 May 2020 UTC launched from the Plesetsk Missile And Space Complex (PKMTR). Debris objects in space refer to the collection of defunct objects orbiting the Earth. Examples of debris include non-operational satellites, rocket bodies, and fragments generated from explosions, collisions, or faulty payload assembly.

Loading next visibility...
FREGAT R/B details
Identifier
45609, 2020-031B
Orbit
Molniya
Last TLE update4 days ago
Origin
Flag of CISLavochkin (CIS)
ManufacturerLavochkin
MissionSpacecraft
Bus & MotorFREGAT, Unknown motor
Mass1,000 kg wet, 1,000 kg dry
Launch date (UTC)
2020-05-22 (5 years ago)
Launch vehicleUnknown
Launch site
Plesetsk Missile And Space Complex (PKMTR)
Object type
Payload
Rocket body
Debris
Shape & HBRIrr, 3.48 m
Radar Cross Section12.110 m², Large (>1 m²)

Expand to show TLE details & history

TLE from 4 days ago
0 FREGAT R/B
1 45609U 20031B   24343.00267600  .00000562  00000-0  00000-0 0  9990
2 45609  63.6408 131.2584 6857386 259.0835  23.0054  2.01473059 33452
Epoch: 2024-12-08T00:03Z
Definitive object data (Epoch: 2024-12-08T00:03:51.206Z)
Latitude0.00005°
Longitude53.00933°
Altitude9,770.566 km
Speed5.858 km/s
True Right ascension08h 44m 52s
True Declination0° 00' 00"
Sunlit
Object was in daylight at TLE epoch
Visualization TLE readout
Latitude-22.26684°
Longitude40.88747°
Altitude5,675.121 km
Speed7.149 km/s
Apparent Right ascension08h 23m 47s
Apparent Declination-28° 38' 10"
Sunlit
Object is in daylight
Visualization observer readout
Local Sidereal Time21:26:49
Azimuth53.807° ENE
Elevation-72.819°
Doppler factor1
Orbital elements
Apogee altitude38,259.367 km
Perigee altitude1,943.346 km
Semi-major axis26,479.493 km
Eccentricity0.6857386
Inclination63.6408°
RAAN131.2584°
Arg. of periapsis259.0835°
True anomaly101.02762°
Mean anomaly23.0054°
Eccentric anomaly55.3121°
Mean motion0.50371 °/min
BSTARUnknown
Orbital period714.7 mins
Loading maneuver chart data...
Loading historical data...
Loading historical data...
Loading historical data...
Loading historical data...
Loading historical data...
Loading historical data...
Loading historical data...
Other satellites on launch #31 in the year 2020 (2020-05-22 UTC)

FREGAT R/B Visibility forecast

Observer location: undefined°, undefined

Span
Click to sort rows by Start time (UTC) header in descending order
Start Az.
Max El. time (UTC)
Max El. Az.
Max El.
End time (UTC)
End Az.
654 mins2024-12-12 11:06:42.652Z201.867° SSW2024-12-12 21:06:42.652Z263.06° W44.77°2024-12-12 22:00:42.652Z170.759° S
|